Temperature
17 18 18 18 18 18 18 18 18 18 18 18 18 18 18 18 18 18 18 18 18 18 18 18 18 18 18 18 18 18 18 18 18 18 18 18 18 18 18 18 18 18 18
18 18 18 18 18 18 18 18 18 17 18 18 18 18 18 18 18 18 18 18 18 18 18 18 18 18 18 18 18 18 18 18 18 18 18 18 18 18 18 18 18 18 18
18 18 18 18 18 18 18 18 17 17 17 17 18 18 17 18 17 18 18 18 18 18 18 18 18 18 18 18 18 18 18 18 18 18 18 18 18 18 18 18 18 18 18
18 18 18 18 18 18 18 17 17 17 17 17 17 17 17 17 17 17 17 17 17 18 18 17 18 18 18 18 18 18 18 18 18 18 18 18 18 18 18 18 18 18 18
18 18 18 18 18 18 18 17 17 17 17 17 17 17 17 17 17 17 17 17 17 17 17 17 17 17 17 17 17 18 17 17 17 18 18 17 18 18 17 18 18 17 17
18 18 18 18 18 17 17 17 17 17 17 17 17 17 17 17 17 17 17 17 17 17 17 17 17 17 17 17 17 17 17 17 17 17 17 17 17 17 17 17 18 17 17
18 18 18 18 18 17 17 17 17 17 17 17 17 17 17 17 17 17 17 17 17 17 17 17 17 17 17 17 17 17 17 17 17 17 17 17 17 17 17 17 17 17 17
18 18 18 18 17 17 17 17 17 17 17 17 17 17 17 17 17 17 17 17 17 17 17 17 17 17 17 17 17 17 17 17 17 17 17 17 17 17 17 17 17 17 17
18 18 18 18 17 17 17 17 17 17 17 17 17 17 17 17 17 17 17 17 17 17 16 16 16 16 17 17 17 17 17 17 17 17 17 17 17 17 17 17 17 17 17
18 18 18 18 18 17 17 17 17 17 17 17 17 17 17 17 17 17 17 16 16 16 16 16 16 16 16 16 16 16 16 16 16 16 16 16 16 17 17 16 17 17 16
18 18 18 18 18 17 17 17 17 17 17 17 17 17 17 17 16 16 16 16 16 16 16 16 16 16 16 16 16 16 16 16 16 16 16 16 16 16 16 16 16 16 16
18 18 18 18 18 17 17 17 17 17 17 17 17 16 16 16 16 16 16 16 16 16 16 16 16 16 16 16 16 16 16 16 16 16 16 16 16 16 16 16 16 16 16
18 18 18 18 18 18 17 17 17 17 17 17 17 17 16 16 16 16 16 16 16 16 16 16 16 16 16 16 16 16 16 16 16 16 16 16 16 16 16 16 16 16 16
18 18 18 18 18 18 17 17 17 17 17 17 17 17 16 16 16 16 16 16 16 16 16 16 16 16 16 16 16 16 16 16 16 16 15 15 15 16 15 15 15 15 15
19 18 18 18 18 18 18 17 17 17 17 17 17 17 16 16 16 16 16 16 16 16 16 16 16 16 16 16 16 16 16 16 16 15 15 15 15 15 15 15 15 15 15
19 19 18 18 18 18 18 17 17 17 17 17 17 17 16 16 16 16 16 16 16 16 16 16 16 16 15 15 15 15 15 15 15 15 15 15 15 15 15 15 15 15 15
19 19 18 18 18 18 18 17 17 17 17 17 17 17 16 16 16 16 16 16 16 16 16 16 15 15 15 15 15 15 15 15 15 15 15 15 15 15 15 15 15 15 15
19 19 18 18 18 18 18 17 17 17 17 17 17 16 16 16 16 16 16 16 16 16 15 15 15 15 15 15 15 15 15 15 15 15 15 15 15 15 15 15 15 14 14
19 19 19 18 18 18 18 17 17 17 17 17 17 16 16 16 16 16 16 15 15 15 15 15 15 15 15 15 15 15 15 15 15 15 15 15 15 15 15 15 14 14 14
19 19 19 18 18 18 17 17 17 17 17 16 16 16 16 16 16 16 16 15 15 15 15 15 15 15 15 15 15 14 14 14 14 14 14 14 14 14 14 14 14 14 14
19 19 19 18 18 18 17 17 17 17 17 16 16 16 16 16 16 16 15 15 15 15 15 15 15 15 15 15 14 14 14 14 14 14 14 14 14 14 14 14 14 14 14
19 19 19 18 18 18 18 17 17 17 16 16 16 16 16 16 16 16 15 15 15 15 15 15 15 14 14 14 14 14 14 14 14 14 14 14 14 14 14 14 14 14 13
19 19 19 18 18 18 18 17 17 17 16 16 16 16 16 15 15 15 15 15 15 15 15 15 14 14 14 14 14 14 14 13 13 14 13 13 13 14 14 13 13 13 13
19 19 19 18 18 18 18 17 17 17 16 16 16 16 16 15 15 15 15 15 15 15 15 14 14 14 14 14 14 14 14 13 13 13 13 13 13 13 13 13 13 13 13
19 19 19 18 18 18 18 17 17 17 16 16 16 16 15 15 15 15 15 15 15 15 14 14 14 14 14 14 14 14 14 13 13 13 13 13 13 13 13 13 13 13 13
19 19 19 18 18 18 17 17 17 17 16 16 16 16 15 15 15 15 15 15 14 14 14 14 14 14 14 14 14 14 13 13 13 13 13 13 13 13 13 13 13 13 13
Wind_Speed
1 1 4 5 6 6 7 7 8 9 9 10 10 11 11 10 10 10 10 10 10 10 9 9 9 9 9 9 10 10 10 10 10 10 9 9 8 8 8 8 8 7 9
4 3 6 6 6 7 8 8 8 9 9 10 10 11 11 11 11 11 11 11 10 10 9 9 9 9 8 8 9 9 9 9 10 10 9 8 8 8 8 8 7 7 9
5 5 6 7 8 8 9 9 9 10 10 10 11 11 11 11 11 11 11 11 11 10 9 9 9 9 8 8 8 8 8 8 9 9 8 6 6 7 8 8 8 8 8
6 7 7 8 8 8 9 9 10 10 10 10 11 11 11 11 11 11 11 10 11 10 10 10 9 9 9 8 7 7 8 8 8 8 5 5 5 7 8 8 8 8 8
7 7 8 9 8 9 9 10 10 10 10 10 10 11 11 12 11 11 11 11 11 10 10 11 10 10 9 8 7 7 7 8 8 7 6 5 5 7 8 8 8 7 7
6 7 8 9 9 9 9 10 10 10 11 11 11 11 11 12 11 11 11 11 11 11 11 10 10 10 10 10 9 8 7 8 8 6 6 5 5 7 7 8 8 7 7
6 6 8 10 10 10 10 10 10 10 11 11 11 11 11 11 11 11 11 11 10 10 10 10 10 10 10 10 10 10 9 9 8 6 5 5 5 7 7 8 8 7 7
7 6 7 9 10 10 10 10 10 10 10 10 10 10 10 10 9 10 10 10 10 9 9 9 9 10 10 10 11 11 10 9 8 6 5 5 6 7 8 7 7 7 7
7 5 5 7 8 9 9 9 9 9 9 9 9 10 10 10 9 9 9 9 9 9 9 8 8 9 9 10 11 11 11 10 7 5 5 5 7 7 7 7 7 7 7
6 5 5 5 6 6 6 7 8 8 8 8 8 8 8 8 8 8 7 7 7 8 8 8 8 8 8 9 10 10 10 9 7 6 5 5 8 8 8 8 8 7 8
6 5 4 4 5 5 5 5 5 5 5 6 6 6 6 5 5 5 5 6 7 7 7 7 7 7 8 8 9 10 8 7 7 5 5 7 8 8 8 7 8 8 8
6 5 5 4 4 4 4 4 3 2 3 3 3 4 4 3 2 2 3 4 5 6 6 6 6 6 6 6 7 8 6 7 6 5 6 8 9 8 8 7 7 7 8
7 6 6 5 4 4 2 3 2 2 2 2 3 4 4 3 2 2 2 3 4 4 4 5 6 5 5 5 5 5 6 6 5 5 6 8 9 9 9 8 8 8 8
7 7 6 6 5 4 3 3 2 2 1 1 3 5 5 3 2 2 1 2 2 3 3 4 3 4 5 5 5 5 6 5 5 5 6 8 8 9 9 9 8 8 7
7 7 7 6 5 4 3 2 2 2 2 2 4 5 6 4 2 2 2 2 2 3 3 3 3 4 4 4 5 5 5 5 5 5 5 7 8 8 8 8 8 8 7
7 7 6 6 5 4 3 2 2 2 3 3 4 5 7 6 4 3 3 2 2 4 4 4 4 4 3 4 4 4 5 5 5 5 5 5 6 7 7 8 8 8 7
8 7 7 7 6 5 4 3 3 3 4 3 4 6 7 7 6 4 3 3 2 5 6 5 5 4 4 4 4 3 3 4 4 4 4 4 5 6 6 7 7 7 7
8 7 7 7 7 5 4 3 3 4 4 3 5 6 6 7 7 5 4 3 3 5 4 4 3 3 3 3 3 2 2 2 3 3 4 4 4 4 4 5 6 6 6
9 8 7 7 7 6 5 3 4 4 4 4 5 5 6 7 7 6 4 3 5 4 3 3 3 3 3 3 2 2 2 2 1 2 3 3 3 3 3 3 4 5 4
8 8 7 6 6 6 4 4 3 4 3 3 3 4 6 6 7 7 4 4 5 4 3 3 3 3 2 2 3 3 2 2 2 2 2 2 2 2 3 3 3 3 3
7 7 6 6 5 5 4 3 3 2 1 1 2 4 5 6 6 6 4 4 4 3 3 3 3 3 2 2 3 3 4 3 3 2 1 1 1 2 3 3 3 3 2
7 7 7 6 6 5 4 3 3 3 1 1 1 3 4 5 5 5 5 4 4 3 3 3 3 2 1 2 3 3 3 4 3 2 2 1 1 1 2 2 3 2 2
7 8 8 7 6 5 5 3 3 3 3 2 2 1 1 3 4 4 5 4 3 3 3 3 3 4 2 1 1 3 3 2 2 3 2 1 1 1 0 1 2 2 2
8 7 8 7 6 5 6 6 6 4 2 2 1 1 1 2 3 4 4 4 3 3 3 3 3 3 3 1 1 1 2 3 2 1 3 2 2 1 1 0 1 2 2
8 7 7 6 5 5 5 6 6 4 2 1 1 1 1 1 1 3 4 3 3 2 3 3 3 3 3 3 2 1 1 1 2 2 1 3 3 2 1 1 1 1 2
6 6 7 7 5 5 5 6 6 6 4 3 2 1 0 0 0 1 2 2 2 2 3 3 3 4 3 3 2 2 2 2 1 2 2 2 2 3 2 1 0 1 2
Wind_Direction
217 201 107 94 85 85 86 84 81 78 79 79 79 78 80 82 83 83 85 83 84 84 85 90 97 98 102 108 112 116 119 119 117 116 115 117 117 116 112 109 106 106 116
175 156 117 102 94 93 94 90 86 83 80 80 81 81 82 82 83 84 82 83 82 83 83 85 91 95 96 103 109 114 115 118 119 117 116 118 120 120 124 120 117 120 116
138 134 116 107 99 96 98 94 90 86 84 84 83 84 83 82 82 85 86 84 81 83 84 88 92 94 95 100 106 110 111 113 117 115 112 108 117 124 125 123 121 123 122
127 125 115 110 106 103 101 98 94 91 89 87 86 87 85 84 84 85 86 86 83 81 81 83 85 88 89 91 100 108 109 108 108 106 100 105 114 122 121 120 119 119 119
117 122 121 114 111 109 106 103 98 95 93 90 89 88 86 85 86 86 85 85 85 83 83 83 81 82 85 86 87 99 106 106 101 94 90 92 101 117 119 119 119 118 117
114 121 122 118 116 116 111 107 103 100 96 92 90 90 89 87 86 86 85 82 83 84 84 83 82 81 83 84 79 85 101 100 93 85 90 95 104 117 117 118 116 116 116
125 125 125 122 119 116 113 111 108 105 100 95 93 92 94 92 88 86 86 82 82 84 83 83 81 82 82 82 77 81 96 100 93 89 92 101 113 120 119 116 115 116 114
135 130 124 121 118 116 115 114 112 108 103 100 98 97 97 96 94 92 91 86 84 86 85 84 82 82 83 82 80 82 91 94 91 89 86 94 113 119 117 115 117 114 117
130 124 121 124 124 120 119 116 114 113 110 107 104 101 100 100 98 93 90 88 86 88 87 88 86 84 81 80 81 82 82 80 76 84 89 89 106 114 112 112 114 113 111
133 137 138 133 127 125 127 128 122 123 119 115 111 105 103 102 96 91 88 86 88 87 82 84 88 88 89 83 82 83 82 76 73 75 82 93 103 106 104 101 102 103 105
141 153 150 145 142 140 140 139 132 134 134 122 117 115 110 100 93 89 90 89 90 88 84 81 81 88 89 86 86 87 84 79 77 75 81 96 102 101 97 95 98 101 102
159 164 161 160 155 158 157 143 146 147 144 140 136 136 136 129 116 102 94 90 88 87 82 77 75 76 77 78 83 84 82 80 78 80 92 100 101 97 94 95 96 98 99
170 166 164 169 168 164 156 156 157 156 162 172 174 172 149 134 125 101 84 70 62 62 60 59 64 66 75 80 79 81 84 81 80 82 95 102 101 98 94 93 94 95 95
161 171 171 169 161 159 157 163 160 160 175 186 179 159 139 128 124 118 104 82 69 67 71 71 76 79 77 81 87 84 84 88 87 87 92 99 101 102 100 97 96 96 94
160 168 173 173 160 157 156 168 144 160 165 156 135 139 137 129 127 119 101 94 88 85 88 88 86 85 86 87 85 89 91 93 92 86 88 99 103 103 102 102 99 97 95
161 163 166 162 161 147 144 137 134 129 122 118 112 126 132 130 126 115 103 92 87 90 90 92 94 91 83 84 79 83 95 96 94 87 81 89 99 104 103 103 100 96 97
163 160 159 153 141 132 132 121 110 98 101 97 103 115 122 126 122 114 103 89 82 86 86 84 79 79 82 78 75 74 90 94 97 96 88 88 92 103 106 105 100 98 96
155 155 158 149 137 134 128 113 98 94 94 90 99 103 109 115 116 111 102 98 99 91 88 89 82 76 70 72 68 61 79 83 88 97 96 95 94 98 103 107 107 105 100
157 152 148 139 136 134 121 107 95 96 89 91 94 92 102 111 118 114 107 108 105 93 83 93 84 92 84 73 78 61 57 74 75 101 96 103 110 108 103 106 117 115 107
152 148 144 137 132 127 112 94 78 71 72 77 89 93 103 111 118 117 114 109 107 97 81 82 88 76 88 88 81 58 36 32 47 68 94 93 104 111 111 102 107 117 113
139 140 141 137 138 132 123 121 111 104 93 79 91 101 110 115 122 120 115 112 110 111 116 113 102 83 57 68 70 38 13 17 33 33 48 70 72 97 111 113 115 116 112
151 148 145 147 147 148 151 154 148 143 136 116 83 83 101 116 128 129 126 129 124 116 108 108 108 99 54 60 103 84 23 358 354 5 17 46 32 80 106 121 120 118 122
154 158 158 155 148 148 140 116 95 70 54 47 52 54 68 118 125 128 136 138 136 134 143 146 136 126 127 19 87 131 135 218 305 333 350 360 357 43 106 125 131 147 157
166 160 156 153 148 148 140 135 135 132 143 190 183 161 93 115 126 131 134 140 146 149 156 169 151 141 136 141 15 68 147 159 151 312 328 331 334 316 260 182 152 164 175
164 158 154 149 149 147 142 143 140 136 156 158 120 104 74 59 108 129 133 137 150 161 164 159 145 145 149 155 161 141 86 76 108 150 262 314 334 305 272 240 166 166 185
156 152 148 145 149 152 143 145 148 151 154 141 133 146 147 30 8 114 131 134 152 160 165 169 165 157 162 155 151 147 150 154 180 166 199 252 284 294 297 280 216 190 191
Height
1520 1518 1517 1516 1515 1514 1513 1513 1512 1512 1511 1511 1511 1510 1510 1510 1510 1510 1510 1510 1510 1510 1510 1511 1511 1511 1512 1512 1513 1513 1514 1515 1516 1517 1518 1519 1520 1521 1522 1523 1524 1524 1525
1519 1518 1517 1516 1515 1514 1514 1513 1513 1512 1512 1512 1511 1511 1511 1511 1511 1511 1510 1511 1510 1511 1511 1511 1511 1512 1512 1512 1513 1514 1514 1515 1516 1517 1518 1519 1521 1521 1522 1523 1524 1524 1525
1519 1518 1517 1516 1515 1515 1514 1514 1513 1513 1513 1512 1512 1512 1512 1512 1511 1511 1511 1511 1511 1511 1511 1511 1512 1512 1512 1512 1513 1514 1514 1515 1516 1517 1518 1519 1521 1522 1522 1523 1524 1525 1525
1520 1519 1518 1517 1516 1516 1515 1515 1514 1514 1513 1513 1513 1513 1513 1512 1512 1512 1512 1512 1512 1512 1512 1512 1512 1512 1512 1513 1513 1513 1514 1515 1516 1517 1518 1520 1521 1522 1523 1523 1524 1525 1525
1520 1520 1519 1518 1517 1516 1516 1516 1515 1515 1514 1514 1514 1514 1513 1513 1513 1513 1513 1513 1513 1513 1513 1512 1513 1513 1512 1512 1512 1512 1513 1514 1516 1517 1518 1520 1521 1522 1522 1523 1524 1524 1525
1521 1520 1520 1519 1518 1517 1517 1517 1517 1516 1516 1515 1515 1515 1514 1515 1514 1514 1514 1514 1514 1514 1513 1514 1513 1513 1513 1513 1512 1510 1511 1514 1516 1517 1519 1520 1521 1522 1523 1523 1524 1524 1525
1522 1521 1521 1520 1519 1519 1518 1518 1518 1518 1517 1517 1516 1516 1516 1516 1516 1516 1515 1515 1515 1515 1515 1515 1515 1514 1514 1513 1511 1509 1510 1513 1516 1518 1519 1520 1521 1522 1523 1523 1524 1524 1525
1523 1522 1522 1521 1521 1520 1520 1519 1519 1519 1519 1518 1518 1518 1517 1517 1517 1517 1517 1517 1516 1516 1516 1516 1516 1516 1515 1515 1514 1512 1513 1515 1517 1518 1520 1521 1521 1522 1523 1523 1524 1524 1525
1524 1523 1523 1523 1522 1522 1521 1521 1521 1520 1520 1520 1520 1519 1519 1519 1519 1518 1518 1518 1518 1518 1518 1517 1517 1517 1517 1517 1516 1516 1516 1518 1519 1520 1521 1521 1522 1522 1523 1523 1524 1524 1525
1525 1524 1524 1524 1523 1523 1522 1522 1522 1522 1522 1522 1521 1521 1521 1521 1520 1520 1520 1519 1519 1519 1519 1519 1518 1518 1518 1518 1518 1518 1519 1520 1520 1521 1521 1522 1522 1522 1523 1523 1524 1524 1525
1525 1525 1525 1524 1524 1524 1524 1524 1524 1524 1524 1523 1523 1523 1522 1522 1522 1521 1521 1521 1521 1521 1520 1520 1520 1520 1520 1520 1520 1520 1520 1521 1521 1522 1522 1522 1522 1523 1523 1523 1523 1524 1524
1525 1525 1526 1525 1525 1525 1525 1525 1525 1525 1525 1525 1524 1524 1524 1523 1523 1523 1523 1523 1522 1522 1522 1522 1522 1522 1522 1522 1522 1522 1522 1522 1522 1523 1523 1523 1523 1523 1523 1523 1524 1524 1524
1525 1526 1526 1526 1526 1526 1526 1526 1526 1526 1526 1525 1525 1525 1525 1525 1524 1524 1524 1524 1524 1523 1523 1523 1523 1523 1523 1523 1523 1523 1523 1523 1523 1524 1524 1524 1524 1524 1524 1524 1524 1524 1524
1525 1526 1526 1526 1526 1527 1527 1527 1527 1527 1527 1526 1526 1526 1526 1525 1525 1525 1525 1525 1525 1525 1525 1524 1524 1524 1524 1524 1524 1524 1524 1524 1524 1525 1525 1525 1525 1525 1525 1524 1524 1524 1524
1525 1526 1526 1527 1527 1527 1528 1528 1528 1527 1527 1527 1527 1527 1527 1526 1526 1526 1526 1526 1526 1526 1525 1525 1525 1525 1525 1525 1524 1524 1525 1525 1525 1526 1526 1526 1526 1526 1525 1525 1525 1525 1525
1525 1526 1526 1527 1527 1528 1528 1528 1528 1528 1528 1527 1527 1527 1527 1527 1527 1526 1526 1526 1526 1526 1526 1526 1526 1525 1525 1525 1525 1525 1525 1526 1526 1526 1526 1526 1527 1526 1526 1526 1526 1526 1525
1525 1525 1526 1527 1527 1528 1528 1528 1528 1528 1528 1528 1527 1527 1527 1527 1527 1527 1527 1527 1527 1527 1527 1526 1526 1526 1526 1526 1526 1526 1526 1526 1527 1527 1527 1527 1527 1527 1527 1527 1526 1526 1526
1524 1525 1526 1527 1527 1528 1528 1528 1528 1528 1528 1528 1528 1527 1527 1527 1527 1527 1527 1527 1527 1527 1527 1527 1527 1526 1526 1526 1526 1526 1527 1527 1527 1527 1528 1528 1528 1528 1527 1527 1527 1527 1526
1523 1524 1525 1526 1527 1528 1528 1529 1529 1529 1528 1528 1528 1527 1527 1527 1527 1527 1527 1527 1527 1527 1527 1527 1527 1527 1526 1526 1526 1527 1527 1527 1527 1528 1528 1528 1528 1528 1528 1527 1527 1527 1527
1523 1524 1525 1526 1527 1528 1528 1528 1529 1529 1528 1528 1528 1527 1527 1527 1527 1527 1527 1527 1527 1527 1527 1527 1527 1526 1526 1526 1526 1527 1527 1527 1527 1528 1528 1528 1528 1528 1528 1527 1527 1527 1527
1522 1523 1524 1525 1526 1527 1527 1528 1528 1528 1528 1528 1527 1527 1527 1527 1527 1527 1527 1527 1527 1527 1527 1527 1526 1526 1526 1526 1526 1527 1527 1527 1527 1528 1528 1528 1528 1528 1527 1527 1527 1527 1526
1520 1522 1523 1525 1525 1526 1527 1527 1527 1528 1528 1528 1527 1527 1527 1527 1527 1527 1527 1527 1527 1527 1527 1527 1526 1526 1526 1526 1526 1526 1527 1528 1527 1527 1527 1527 1527 1527 1527 1527 1526 1526 1526
1519 1520 1522 1523 1524 1525 1526 1527 1527 1527 1527 1527 1527 1527 1527 1527 1527 1527 1527 1527 1527 1527 1526 1526 1526 1525 1525 1526 1526 1527 1526 1526 1527 1527 1527 1527 1527 1526 1526 1526 1526 1525 1525
1517 1519 1521 1522 1523 1524 1525 1525 1525 1526 1526 1526 1527 1527 1527 1527 1527 1527 1526 1526 1526 1526 1526 1525 1525 1525 1525 1525 1526 1526 1526 1526 1526 1526 1526 1526 1526 1526 1525 1525 1524 1524 1524
1516 1518 1520 1521 1522 1523 1524 1524 1524 1525 1525 1526 1526 1526 1526 1526 1526 1526 1525 1525 1525 1525 1524 1524 1524 1524 1524 1524 1525 1525 1525 1525 1525 1525 1524 1525 1525 1524 1524 1523 1523 1522 1522
1514 1516 1518 1519 1521 1522 1522 1523 1523 1524 1524 1525 1525 1525 1525 1525 1525 1524 1524 1524 1523 1523 1523 1523 1523 1523 1523 1523 1523 1524 1524 1524 1524 1524 1523 1523 1523 1523 1523 1522 1521 1521 1520